STARLINK-36972, 68072

Orbit data source: Space-Track

STARLINK-36972, 68072 is a payload satellite owned by SpaceX/Seattle (US) in LEO that was launched on Wed, 04 Mar 2026 UTC via an FALCON 9 launch vehicle from the Air Force Eastern Test Range (AFETR). Payload-class satellites include a variety of spacecraft equipped with specific instruments for various scientific and technological missions. These include communications satellites like Starlink; space stations such as the ISS; scientific satellites like the Hubble; Earth observation satellites from companies like Planet Labs, Umbra, and HawkEye 360; GPS; miniature CubeSats for education and research; and military/defense satellites.

Loading next visibility...
Identifier
68072, 2026-042D
Orbit
LEO
Country
Flag of USUS
Related business
Manufacturer
SpaceX/Seattle
Mission
Operational spacecraft
Bus & Motor
STARLINK V2MO, Unknown motor
Mass
575 kg wet, ~530 kg dry
Launch date (UTC)
2026-03-04 (1 month ago)
Launch vehicle
FALCON 9
Launch site
Air Force Eastern Test Range (AFETR)
Object type
Payload
Rocket body
Debris
Shape & HBR
Unknown shape, 17.7 m
Radar Cross Section
RCS unknown

Expand to show TLE details & history
Last TLE update: 13 hours ago

TLE from 13 hours ago
0 STARLINK-36972
1 68072U 26042D   26102.05191276  .00147546  00000-0  94730-3 0  9992
2 68072  53.1599  28.0308 0001198 114.2561 245.8585 15.75303714  7355
Epoch: 2026-04-12T01:14Z
TLE epoch observation values (Epoch: 2026-04-12T01:14:45.262Z)
Latitude
0.00001°
Longitude
169.07981°
Altitude
345.014 km
Speed
7.703 km/s
True Right ascension
01h 52m 07s
True Declination
0° 00' 00"
Sunlit
Object was in daylight at epoch
Visualization orbit readout
Latitude
Unknown
Longitude
Unknown
Altitude
Unknown
Speed
Unknown
Apparent Right ascension
Unknown
Apparent Declination
Unknown
Sunlit
N/A
Visualization observer readout
Local Sidereal Time
20:36:51
Azimuth
Unknown
Elevation
Unknown
Doppler factor
Unknown
Orbital elements
Apogee altitude
344.834 km
Perigee altitude
343.223 km
Semi-major axis
6,722.165 km
Eccentricity
0.00012
Inclination
53.1599°
RAAN
28.0308°
Arg. of periapsis
114.2561°
True anomaly
245.84597°
Mean anomaly
245.8585°
Eccentric anomaly
245.85224°
Mean motion
3.93803 °/min
Orbital period
91.42 mins
BSTAR
0.0009473
Loading maneuver chart data...
Computing Atmospheric mass density...
Loading historical data...
Loading historical data...
Loading historical data...
Loading historical data...
Loading historical data...
Loading historical data...
Loading historical data...

Documentation

Showing up to 5 results
|